Erzurum, Turkey

1:44 PM +03 on January 16, 2018 (GMT +0300)
Erzurum

Weather History for LTCE - December, 2013

Change the Weather History Date:

Monday, December 2, 2013

  Actual Average Record
Temperature  
Mean Temperature 18 °F -  
Max Temperature 28 °F 31 °F 53 °F (2010)
Min Temperature 7 °F 18 °F -7 °F (2011)
Degree Days  
Heating Degree Days 48    
Moisture  
Dew Point 18 °F    
Average Humidity 90    
Maximum Humidity 100    
Minimum Humidity 69    
Precipitation  
Precipitation 0.00 in 0.03 in - ()
Sea Level Pressure  
Sea Level Pressure 30.19 in    
Wind  
Wind Speed 2 mph ()    
Max Wind Speed 9 mph    
Max Gust Speed -    
Visibility 3.1 miles    
Events Snow    
Averages and records for this station are not official NWS values.
T = Trace of Precipitation, MM = Missing Value Source: Averaged Metar Reports

Daily Weather History Graph

Daily Weather History Graph

Search for Another Location

Airport or City:

Trip Planner

Search our weather history database for the weather conditions in past years. The results will help you decide how hot, cold, wet, or windy it might be!

Date:

Astronomy

Dec. 02, 2013 Rise Set
Actual Time 6:18 AM EET 3:50 PM EET
Civil Twilight 5:48 AM EET 4:20 PM EET
Nautical Twilight 5:15 AM EET 4:54 PM EET
Astronomical Twilight 4:42 AM EET 5:26 PM EET
Moon 5:19 AM EET (12/2) 3:33 PM EET (12/2)
Length of Visible Light 10h 31m
Length of Day
9h 31m
Waning Crescent, 1% of the Moon is Illuminated
Dec 2
Waning Crescent
Dec 3
New
Dec 9
First Quarter
Dec 17
Full
Dec 25
Last Quarter

Hourly Weather History & Observations

Time (EET) Temp. Windchill Dew Point Humidity Pressure Visibility Wind Dir Wind Speed Gust Speed Precip Events Conditions
12:20 AM 17.6 °F 12.3 °F 14.0 °F 86% 30.33 in - NNE 3.5 mph - N/A   Mist
12:50 AM 17.6 °F - 14.0 °F 86% 30.33 in - Variable 2.3 mph - N/A   Mist
1:20 AM 17.6 °F - 15.8 °F 93% 30.33 in - Calm Calm - N/A   Mostly Cloudy
1:27 AM 17.6 °F - 15.8 °F 93% 30.33 in 3.7 mi Calm Calm - N/A   Mostly Cloudy
1:50 AM 19.4 °F - 15.8 °F 86% 30.33 in - Variable 1.2 mph - N/A   Mostly Cloudy
2:00 AM 18 °F - 17 °F 96%  in 3 mi East 1.2 mph - -   Mist
2:20 AM 19.4 °F - 15.8 °F 86% 30.30 in - NW 1.2 mph - N/A   Mostly Cloudy
2:50 AM 19.4 °F - 15.8 °F 86% 30.30 in - Variable 1.2 mph - N/A   Mostly Cloudy
3:20 AM 17.6 °F - 15.8 °F 93% 30.30 in - Calm Calm - N/A   Mostly Cloudy
3:50 AM 17.6 °F - 15.8 °F 93% 30.30 in - Variable 1.2 mph - N/A   Mostly Cloudy
4:20 AM 17.6 °F - 15.8 °F 93% 30.30 in - Variable 1.2 mph - N/A   Mostly Cloudy
4:50 AM 14.0 °F 8.2 °F 12.2 °F 93% 30.30 in - North 3.5 mph - N/A   Mostly Cloudy
5:00 AM 15 °F - 15 °F 98%  in 3 mi North 3.5 mph - -   Mist
5:20 AM 12.2 °F 6.1 °F 12.2 °F 100% 30.27 in - ESE 3.5 mph - N/A   Mostly Cloudy
5:50 AM 12.2 °F 6.1 °F 12.2 °F 100% 30.27 in - SE 3.5 mph - N/A   Mostly Cloudy
6:20 AM 10.4 °F 4.0 °F 10.4 °F 100% 30.27 in - SE 3.5 mph - N/A   Scattered Clouds
6:29 AM 6.8 °F - 5.0 °F 92% 30.30 in 1.4 mi Variable 2.3 mph - N/A   Mist
6:50 AM 8.6 °F - 8.6 °F 100% 30.30 in 1.0 mi Variable 2.3 mph - N/A   Scattered Clouds
7:20 AM 12.2 °F - 10.4 °F 92% 30.30 in 1.0 mi Variable 1.2 mph - N/A   Mostly Cloudy
7:50 AM 14.0 °F - 12.2 °F 93% 30.30 in 1.2 mi Variable 2.3 mph - N/A   Mostly Cloudy
8:00 AM 14 °F - 14 °F 100%  in 1 mi WSW 2.3 mph - -   Mist
8:20 AM 19.4 °F - 17.6 °F 93% 30.27 in 1.8 mi Calm Calm - N/A   Mostly Cloudy
8:50 AM 19.4 °F - 17.6 °F 93% 30.27 in - Calm Calm - N/A   Mostly Cloudy
9:20 AM 23.0 °F - 17.6 °F 80% 30.27 in - Calm Calm - N/A   Mostly Cloudy
9:50 AM 23.0 °F - 19.4 °F 86% 30.24 in - Variable 1.2 mph - N/A   Mostly Cloudy
10:20 AM 26.6 °F - 19.4 °F 74% 30.24 in 2.2 mi Calm Calm - N/A   Mostly Cloudy
10:50 AM 24.8 °F - 19.4 °F 80% 30.21 in - Variable 1.2 mph - N/A   Mostly Cloudy
11:00 AM 26 °F - 20 °F 69%  in 2 mi SW 1.2 mph - -   Mist
11:20 AM 26.6 °F - 19.4 °F 74% 30.21 in 2.2 mi Variable 2.3 mph - N/A   Mostly Cloudy
11:50 AM 24.8 °F 19.1 °F 19.4 °F 80% 30.21 in 2.2 mi NNW 4.6 mph - N/A   Mostly Cloudy
12:20 PM 26.6 °F - 19.4 °F 74% 30.18 in 3.7 mi Variable 2.3 mph - N/A   Mostly Cloudy
12:50 PM 26.6 °F - 21.2 °F 80% 30.18 in 3.7 mi Variable 1.2 mph - N/A   Mostly Cloudy
1:20 PM 26.6 °F - 21.2 °F 80% 30.18 in 3.7 mi Variable 2.3 mph - N/A   Mostly Cloudy
1:50 PM 26.6 °F - 21.2 °F 80% 30.15 in 3.7 mi Variable 2.3 mph - N/A   Mostly Cloudy
2:00 PM 27 °F - 21 °F 70%  in 4 mi SSE 2.3 mph - -   Mist
2:20 PM 26.6 °F - 21.2 °F 80% 30.15 in 3.7 mi SSE 1.2 mph - N/A   Mostly Cloudy
2:50 PM 26.6 °F - 23.0 °F 86% 30.15 in 3.7 mi Variable 1.2 mph - N/A   Mostly Cloudy
3:20 PM 26.6 °F 22.6 °F 21.2 °F 80% 30.12 in 3.7 mi NNE 3.5 mph - N/A   Mostly Cloudy
3:50 PM 24.8 °F 20.5 °F 21.2 °F 86% 30.12 in 3.7 mi East 3.5 mph - N/A   Mostly Cloudy
4:20 PM 24.8 °F - 21.2 °F 86% 30.12 in 3.7 mi Variable 2.3 mph - N/A   Mostly Cloudy
4:50 PM 23.0 °F - 19.4 °F 86% 30.09 in 3.7 mi North 2.3 mph - N/A   Mostly Cloudy
5:00 PM 23 °F - 21 °F 88%  in 4 mi North 2.3 mph - -   Mist
5:20 PM 23.0 °F - 19.4 °F 86% 30.12 in 4.3 mi Variable 2.3 mph - N/A   Mostly Cloudy
5:50 PM 23.0 °F 17.0 °F 21.2 °F 93% 30.12 in 4.3 mi South 4.6 mph - N/A   Mostly Cloudy
6:20 PM 23.0 °F 17.0 °F 19.4 °F 86% 30.09 in 4.3 mi WNW 4.6 mph - N/A   Mostly Cloudy
6:50 PM 21.2 °F - 17.6 °F 86% 30.09 in 5.0 mi Variable 2.3 mph - N/A   Mostly Cloudy
7:20 PM 17.6 °F 10.7 °F 17.6 °F 100% 30.09 in 3.7 mi SSE 4.6 mph - N/A   Mostly Cloudy
7:50 PM 21.2 °F - 19.4 °F 93% 30.09 in 4.3 mi West 1.2 mph - N/A   Mostly Cloudy
8:00 PM 21 °F - 20 °F 97%  in 4 mi West 1.2 mph - -   Mist
8:20 PM 23.0 °F 17.0 °F 21.2 °F 93% 30.09 in 3.7 mi West 4.6 mph - N/A   Mostly Cloudy
8:25 PM 23.0 °F 17.0 °F 21.2 °F 93% 30.09 in 2.5 mi West 4.6 mph - N/A Snow Light Snow
8:50 PM 26.6 °F 17.5 °F 26.6 °F 100% 30.09 in - West 9.2 mph - N/A Snow Light Snow
9:20 PM 26.6 °F 21.2 °F 26.6 °F 100% 30.06 in - ENE 4.6 mph - N/A Snow Light Snow
9:50 PM 24.8 °F 19.1 °F 24.8 °F 100% 30.06 in - East 4.6 mph - N/A Snow Light Snow
10:01 PM 24.8 °F - 24.8 °F 100% 30.06 in - Variable 2.3 mph - N/A   Mostly Cloudy
10:20 PM 24.8 °F - 24.8 °F 100% 30.06 in - ESE 2.3 mph - N/A   Mostly Cloudy
10:50 PM 24.8 °F - 24.8 °F 100% 30.04 in - Calm Calm - N/A   Mostly Cloudy
11:00 PM 25 °F - 25 °F 100%  in 2 mi Calm Calm - - Snow Light Snow
11:20 PM 24.8 °F - 24.8 °F 100% 30.04 in - Calm Calm - N/A   Mostly Cloudy
11:50 PM 26.6 °F - 24.8 °F 93% 30.01 in - Variable 1.2 mph - N/A   Mostly Cloudy